| time (UTC) | temp C | wind direction | speed KPH | gust KPH | rain 1hr cm | rain 24hr cm | rain mn cm | humidity % | barometer mb |
| 20260906130554 | 17 | 103 | 4.8 | 11.3 | 0.00 | 0.15 | 0.03 | 82 | 1020.2 |
| 20260906130104 | 17 | 40 | 1.6 | 6.4 | 0.00 | 0.15 | 0.03 | 85 | 1020.2 |
| 20260906125554 | 16 | 93 | 1.6 | 12.9 | 0.00 | 0.15 | 0.03 | 86 | 1020.2 |
| 20260906125053 | 16 | 88 | 3.2 | 12.9 | 0.00 | 0.15 | 0.03 | 89 | 1020.2 |
| 20260906124602 | 16 | 126 | 3.2 | 6.4 | 0.00 | 0.15 | 0.03 | 90 | 1020.0 |
| 20260906124053 | 15 | 98 | 1.6 | 6.4 | 0.00 | 0.15 | 0.03 | 91 | 1020.0 |
| 20260906123553 | 15 | 0 | 3.2 | 6.4 | 0.00 | 0.15 | 0.03 | 93 | 1019.9 |
| 20260906123103 | 14 | 99 | 1.6 | 4.8 | 0.00 | 0.15 | 0.03 | 93 | 1019.9 |
| 20260906122557 | 14 | 0 | 0.0 | 4.8 | 0.00 | 0.15 | 0.03 | 93 | 1019.9 |
| 20260906122054 | 13 | 93 | 1.6 | 4.8 | 0.00 | 0.15 | 0.03 | 93 | 1020.0 |
| 20260906121604 | 13 | 55 | 1.6 | 4.8 | 0.00 | 0.15 | 0.03 | 93 | 1019.9 |
| 20260906121053 | 13 | 83 | 0.0 | 4.8 | 0.00 | 0.15 | 0.03 | 93 | 1019.9 |
| 20260906120557 | 13 | 84 | 0.0 | 4.8 | 0.00 | 0.15 | 0.03 | 93 | 1019.8 |
| 20260906120115 | 13 | 87 | 1.6 | 6.4 | 0.00 | 0.15 | 0.03 | 93 | 1019.8 |
| 20260906115554 | 13 | 96 | 1.6 | 6.4 | 0.00 | 0.15 | 0.03 | 93 | 1019.6 |
| 20260906115054 | 13 | 75 | 1.6 | 9.7 | 0.00 | 0.15 | 0.03 | 93 | 1019.7 |
| 20260906114609 | 13 | 76 | 1.6 | 9.7 | 0.00 | 0.15 | 0.03 | 93 | 1019.6 |
| 20260906114054 | 13 | 66 | 1.6 | 6.4 | 0.00 | 0.15 | 0.03 | 93 | 1019.6 |
| 20260906113553 | 13 | 91 | 1.6 | 6.4 | 0.00 | 0.15 | 0.03 | 93 | 1019.7 |
| 20260906113103 | 13 | 88 | 0.0 | 6.4 | 0.00 | 0.15 | 0.03 | 93 | 1019.6 |
| 20260906112553 | 13 | 0 | 1.6 | 6.4 | 0.00 | 0.15 | 0.03 | 93 | 1019.4 |
| 20260906112055 | 13 | 0 | 0.0 | 6.4 | 0.03 | 0.15 | 0.03 | 93 | 1019.3 |
| 20260906111619 | 13 | 80 | 0.0 | 3.2 | 0.03 | 0.15 | 0.03 | 93 | 1019.3 |
| 20260906111055 | 13 | 78 | 0.0 | 4.8 | 0.03 | 0.15 | 0.03 | 93 | 1019.2 |
| 20260906110556 | 13 | 0 | 0.0 | 6.4 | 0.03 | 0.15 | 0.03 | 93 | 1019.3 |
| 20260906105553 | 13 | 78 | 1.6 | 6.4 | 0.03 | 0.15 | 0.03 | 93 | 1019.2 |
| 20260906105052 | 13 | 74 | 1.6 | 4.8 | 0.03 | 0.15 | 0.03 | 93 | 1019.3 |
| 20260906104606 | 13 | 96 | 1.6 | 4.8 | 0.03 | 0.15 | 0.03 | 93 | 1019.4 |
| 20260906104054 | 13 | 78 | 1.6 | 6.4 | 0.03 | 0.15 | 0.03 | 93 | 1019.3 |
| 20260906103553 | 13 | 0 | 1.6 | 6.4 | 0.03 | 0.15 | 0.03 | 93 | 1019.4 |
| 20260906103105 | 13 | 0 | 0.0 | 4.8 | 0.03 | 0.15 | 0.03 | 93 | 1019.2 |
| 20260906102553 | 13 | 65 | 1.6 | 4.8 | 0.03 | 0.15 | 0.03 | 93 | 1019.1 |
| 20260906102056 | 13 | 0 | 1.6 | 6.4 | 0.00 | 0.13 | 0.00 | 94 | 1019.1 |
| 20260906101600 | 13 | 71 | 1.6 | 6.4 | 0.00 | 0.13 | 0.00 | 93 | 1019.1 |
| 20260906101053 | 13 | 99 | 1.6 | 8.0 | 0.00 | 0.13 | 0.00 | 94 | 1019.0 |
| 20260906100652 | 13 | 0 | 1.6 | 8.0 | 0.00 | 0.13 | 0.00 | 93 | 1019.0 |
| 20260906100100 | 13 | 72 | 1.6 | 8.0 | 0.00 | 0.13 | 0.00 | 93 | 1018.9 |
| 20260906095553 | 13 | 0 | 0.0 | 3.2 | 0.00 | 0.13 | 0.00 | 93 | 1019.1 |
| 20260906095053 | 13 | 82 | 0.0 | 1.6 | 0.00 | 0.13 | 0.00 | 93 | 1018.9 |
| 20260906094603 | 13 | 0 | 0.0 | 4.8 | 0.00 | 0.13 | 0.00 | 93 | 1019.0 |
| 20260906094056 | 13 | 0 | 0.0 | 4.8 | 0.00 | 0.13 | 0.00 | 94 | 1019.0 |
| 20260906093553 | 13 | 0 | 0.0 | 4.8 | 0.00 | 0.13 | 0.00 | 94 | 1019.0 |
| 20260906093105 | 13 | 90 | 0.0 | 3.2 | 0.00 | 0.13 | 0.00 | 94 | 1018.9 |
| 20260906092554 | 13 | 82 | 0.0 | 4.8 | 0.00 | 0.13 | 0.00 | 94 | 1018.9 |
| 20260906092057 | 13 | 0 | 0.0 | 4.8 | 0.00 | 0.13 | 0.00 | 93 | 1018.8 |
| 20260906091610 | 13 | 74 | 0.0 | 4.8 | 0.00 | 0.13 | 0.00 | 93 | 1018.8 |
| 20260906091055 | 13 | 103 | 1.6 | 6.4 | 0.00 | 0.13 | 0.00 | 93 | 1018.8 |
| 20260906090554 | 13 | 80 | 1.6 | 6.4 | 0.00 | 0.13 | 0.00 | 93 | 1018.6 |
| 20260906085553 | 13 | 78 | 0.0 | 0.0 | 0.00 | 0.13 | 0.00 | 92 | 1018.7 |
| 20260906085056 | 13 | 0 | 0.0 | 0.0 | 0.00 | 0.13 | 0.00 | 92 | 1018.8 |
| 20260906084601 | 13 | 0 | 0.0 | 0.0 | 0.00 | 0.13 | 0.00 | 92 | 1018.8 |
| 20260906084057 | 13 | 0 | 0.0 | 0.0 | 0.00 | 0.13 | 0.00 | 92 | 1018.8 |
| 20260906083553 | 13 | 0 | 0.0 | 0.0 | 0.00 | 0.13 | 0.00 | 92 | 1018.7 |
| 20260906083104 | 13 | 0 | 0.0 | 0.0 | 0.00 | 0.13 | 0.00 | 92 | 1018.6 |
| 20260906082553 | 13 | 0 | 0.0 | 0.0 | 0.00 | 0.13 | 0.00 | 92 | 1018.5 |
| 20260906082056 | 13 | 0 | 0.0 | 0.0 | 0.00 | 0.13 | 0.00 | 92 | 1018.4 |
| 20260906081601 | 13 | 0 | 0.0 | 0.0 | 0.00 | 0.13 | 0.00 | 92 | 1018.3 |
| 20260906081053 | 13 | 0 | 0.0 | 0.0 | 0.00 | 0.13 | 0.00 | 92 | 1018.2 |
| 20260906080554 | 13 | 0 | 0.0 | 0.0 | 0.00 | 0.13 | 0.00 | 92 | 1018.1 |
| 20260906080110 | 13 | 0 | 0.0 | 0.0 | 0.00 | 0.13 | 0.00 | 92 | 1018.1 |
| 20260906075553 | 13 | 0 | 0.0 | 0.0 | 0.00 | 0.13 | 0.00 | 92 | 1018.0 |
| 20260906075053 | 14 | 0 | 0.0 | 1.6 | 0.00 | 0.13 | 0.00 | 92 | 1017.9 |
| 20260906074603 | 14 | 0 | 0.0 | 1.6 | 0.00 | 0.13 | 0.00 | 92 | 1018.1 |
| 20260906074053 | 14 | 0 | 0.0 | 1.6 | 0.00 | 0.13 | 0.00 | 92 | 1018.1 |
| 20260906073553 | 14 | 0 | 0.0 | 0.0 | 0.00 | 0.13 | 0.00 | 92 | 1018.0 |
| 20260906073105 | 14 | 0 | 0.0 | 0.0 | 0.00 | 0.13 | 0.00 | 92 | 1018.0 |
| 20260906072554 | 14 | 0 | 0.0 | 0.0 | 0.00 | 0.13 | 0.00 | 92 | 1018.1 |
| 20260906072055 | 14 | 0 | 0.0 | 0.0 | 0.00 | 0.13 | 0.00 | 92 | 1018.1 |
| 20260906071608 | 15 | 0 | 0.0 | 0.0 | 0.00 | 0.13 | 0.00 | 92 | 1018.0 |
| 20260906071054 | 15 | 0 | 0.0 | 1.6 | 0.00 | 0.13 | 0.00 | 92 | 1018.1 |
| 20260906070553 | 15 | 0 | 0.0 | 3.2 | 0.00 | 0.13 | 0.00 | 92 | 1017.9 |
| 20260906070130 | 15 | 0 | 0.0 | 3.2 | 0.00 | 0.13 | 0.00 | 92 | 1018.1 |
| 20260906065555 | 15 | 0 | 0.0 | 3.2 | 0.00 | 0.13 | 0.00 | 92 | 1018.0 |
| 20260906065055 | 15 | 90 | 0.0 | 4.8 | 0.00 | 0.13 | 0.00 | 92 | 1018.0 |
| 20260906064600 | 15 | 94 | 0.0 | 4.8 | 0.00 | 0.13 | 0.00 | 91 | 1017.9 |
| 20260906064055 | 15 | 101 | 0.0 | 1.6 | 0.00 | 0.13 | 0.00 | 91 | 1018.0 |
| 20260906063555 | 15 | 0 | 0.0 | 1.6 | 0.00 | 0.13 | 0.00 | 91 | 1018.1 |
| 20260906063103 | 15 | 0 | 0.0 | 0.0 | 0.00 | 0.13 | 0.00 | 91 | 1018.1 |
| 20260906062558 | 15 | 0 | 0.0 | 0.0 | 0.00 | 0.13 | 0.00 | 91 | 1018.1 |
| 20260906062055 | 15 | 0 | 0.0 | 0.0 | 0.00 | 0.13 | 0.00 | 91 | 1018.1 |
| 20260906061604 | 15 | 0 | 0.0 | 0.0 | 0.00 | 0.13 | 0.00 | 91 | 1018.1 |
| 20260906061055 | 15 | 0 | 0.0 | 0.0 | 0.00 | 0.13 | 0.00 | 92 | 1018.1 |
| 20260906060555 | 15 | 0 | 0.0 | 0.0 | 0.00 | 0.13 | 0.00 | 92 | 1018.1 |
| 20260906060101 | 15 | 0 | 0.0 | 0.0 | 0.00 | 0.13 | 0.00 | 91 | 1018.1 |
| 20260906055555 | 15 | 0 | 0.0 | 0.0 | 0.00 | 0.13 | 0.00 | 91 | 1018.1 |
| 20260906055055 | 16 | 0 | 0.0 | 1.6 | 0.00 | 0.13 | 0.00 | 91 | 1018.1 |
| 20260906054609 | 16 | 0 | 0.0 | 1.6 | 0.00 | 0.13 | 0.00 | 91 | 1018.0 |
| 20260906054055 | 16 | 0 | 0.0 | 0.0 | 0.00 | 0.13 | 0.00 | 91 | 1018.0 |
| 20260906053555 | 16 | 0 | 0.0 | 1.6 | 0.00 | 0.13 | 0.00 | 91 | 1018.0 |
| 20260906053100 | 16 | 0 | 0.0 | 1.6 | 0.00 | 0.13 | 0.00 | 91 | 1017.9 |
| 20260906052555 | 16 | 0 | 0.0 | 3.2 | 0.00 | 0.13 | 0.00 | 91 | 1017.8 |
| 20260906052054 | 16 | 0 | 0.0 | 3.2 | 0.00 | 0.13 | 0.00 | 91 | 1017.9 |
| 20260906051609 | 16 | 75 | 0.0 | 3.2 | 0.00 | 0.13 | 0.00 | 91 | 1017.8 |
| 20260906051055 | 16 | 0 | 1.6 | 4.8 | 0.00 | 0.13 | 0.00 | 92 | 1017.8 |
| 20260906050557 | 16 | 77 | 1.6 | 4.8 | 0.00 | 0.13 | 0.00 | 92 | 1017.8 |
| 20260906050106 | 16 | 0 | 1.6 | 4.8 | 0.00 | 0.13 | 0.00 | 92 | 1017.7 |
| 20260906045600 | 16 | 0 | 0.0 | 3.2 | 0.00 | 0.13 | 0.00 | 92 | 1017.7 |
| 20260906045054 | 16 | 0 | 0.0 | 0.0 | 0.00 | 0.13 | 0.00 | 91 | 1017.7 |
| 20260906044600 | 16 | 0 | 0.0 | 0.0 | 0.00 | 0.13 | 0.00 | 91 | 1017.7 |
| 20260906044056 | 16 | 0 | 0.0 | 0.0 | 0.00 | 0.13 | 0.00 | 91 | 1017.5 |
| 20260906043555 | 16 | 0 | 0.0 | 0.0 | 0.00 | 0.13 | 0.00 | 91 | 1017.7 |
| 20260906043106 | 17 | 0 | 0.0 | 0.0 | 0.00 | 0.13 | 0.00 | 91 | 1017.7 |
| 20260906042557 | 17 | 0 | 0.0 | 4.8 | 0.00 | 0.13 | 0.00 | 91 | 1017.7 |
| 20260906042055 | 17 | 0 | 0.0 | 4.8 | 0.00 | 0.13 | 0.00 | 91 | 1017.5 |
| 20260906041614 | 17 | 80 | 0.0 | 4.8 | 0.00 | 0.13 | 0.00 | 91 | 1017.4 |
| 20260906041054 | 17 | 0 | 0.0 | 4.8 | 0.00 | 0.13 | 0.00 | 91 | 1017.4 |
| 20260906040554 | 17 | 0 | 0.0 | 6.4 | 0.00 | 0.13 | 0.00 | 92 | 1017.3 |
| 20260906040115 | 17 | 98 | 3.2 | 6.4 | 0.00 | 0.13 | 0.00 | 92 | 1017.3 |
| 20260906035554 | 17 | 117 | 0.0 | 3.2 | 0.00 | 0.13 | 0.13 | 93 | 1017.3 |
| 20260906035055 | 17 | 0 | 0.0 | 1.6 | 0.00 | 0.13 | 0.13 | 93 | 1017.2 |
| 20260906034619 | 17 | 0 | 0.0 | 1.6 | 0.00 | 0.13 | 0.13 | 93 | 1017.2 |
| 20260906034053 | 17 | 0 | 0.0 | 1.6 | 0.00 | 0.13 | 0.13 | 93 | 1017.2 |
| 20260906033557 | 17 | 0 | 0.0 | 0.0 | 0.00 | 0.13 | 0.13 | 92 | 1017.0 |
| 20260906033108 | 17 | 0 | 0.0 | 0.0 | 0.00 | 0.13 | 0.13 | 92 | 1017.1 |
| 20260906032557 | 18 | 0 | 0.0 | 0.0 | 0.00 | 0.13 | 0.13 | 92 | 1017.0 |
| 20260906032054 | 18 | 0 | 0.0 | 0.0 | 0.00 | 0.13 | 0.13 | 92 | 1017.0 |
| 20260906031604 | 18 | 0 | 0.0 | 0.0 | 0.00 | 0.13 | 0.13 | 92 | 1016.8 |
| 20260906031054 | 18 | 0 | 0.0 | 0.0 | 0.00 | 0.13 | 0.13 | 92 | 1016.8 |
| 20260906030554 | 18 | 0 | 0.0 | 0.0 | 0.00 | 0.13 | 0.13 | 92 | 1016.9 |
| 20260906030120 | 18 | 0 | 0.0 | 0.0 | 0.00 | 0.13 | 0.13 | 92 | 1016.9 |
| 20260906025553 | 18 | 0 | 0.0 | 0.0 | 0.00 | 0.13 | 0.13 | 92 | 1016.8 |
| 20260906025053 | 18 | 0 | 0.0 | 0.0 | 0.00 | 0.13 | 0.13 | 92 | 1016.8 |
| 20260906024630 | 18 | 0 | 0.0 | 0.0 | 0.00 | 0.13 | 0.13 | 92 | 1016.7 |
| 20260906024054 | 18 | 0 | 0.0 | 0.0 | 0.00 | 0.13 | 0.13 | 92 | 1016.7 |
| 20260906023556 | 18 | 0 | 0.0 | 0.0 | 0.00 | 0.13 | 0.13 | 92 | 1016.6 |
| 20260906023107 | 18 | 0 | 0.0 | 0.0 | 0.00 | 0.13 | 0.13 | 92 | 1016.6 |
| 20260906022555 | 19 | 0 | 0.0 | 0.0 | 0.00 | 0.13 | 0.13 | 92 | 1016.6 |
| 20260906022053 | 19 | 0 | 0.0 | 0.0 | 0.00 | 0.13 | 0.13 | 92 | 1016.5 |
| 20260906021611 | 19 | 0 | 0.0 | 0.0 | 0.00 | 0.13 | 0.13 | 92 | 1016.5 |
| 20260906021055 | 19 | 0 | 0.0 | 0.0 | 0.00 | 0.13 | 0.13 | 92 | 1016.5 |
| 20260906020555 | 19 | 0 | 0.0 | 0.0 | 0.00 | 0.13 | 0.13 | 92 | 1016.3 |
| 20260906020116 | 19 | 0 | 0.0 | 0.0 | 0.00 | 0.13 | 0.13 | 92 | 1016.4 |
| 20260906015556 | 19 | 0 | 0.0 | 0.0 | 0.00 | 0.13 | 0.13 | 92 | 1016.3 |
| 20260906015055 | 19 | 0 | 0.0 | 0.0 | 0.00 | 0.13 | 0.13 | 92 | 1016.1 |
| 20260906014612 | 19 | 0 | 0.0 | 0.0 | 0.00 | 0.13 | 0.13 | 91 | 1016.1 |
| 20260906014053 | 20 | 0 | 0.0 | 0.0 | 0.00 | 0.13 | 0.13 | 91 | 1016.2 |
| 20260906013553 | 20 | 0 | 0.0 | 0.0 | 0.00 | 0.13 | 0.13 | 91 | 1016.2 |
| 20260906013104 | 20 | 0 | 0.0 | 0.0 | 0.00 | 0.13 | 0.13 | 91 | 1016.2 |
| 20260906012556 | 20 | 0 | 0.0 | 0.0 | 0.00 | 0.13 | 0.13 | 91 | 1016.0 |
| 20260906012057 | 20 | 0 | 0.0 | 0.0 | 0.00 | 0.13 | 0.13 | 91 | 1015.9 |
| 20260906011602 | 20 | 0 | 0.0 | 0.0 | 0.00 | 0.13 | 0.13 | 91 | 1015.9 |
| 20260906011053 | 20 | 0 | 0.0 | 0.0 | 0.00 | 0.13 | 0.13 | 91 | 1015.9 |
| 20260906010553 | 20 | 0 | 0.0 | 0.0 | 0.00 | 0.13 | 0.13 | 90 | 1015.9 |
| 20260906010119 | 20 | 0 | 0.0 | 0.0 | 0.00 | 0.13 | 0.13 | 90 | 1015.8 |
| 20260906005556 | 20 | 0 | 0.0 | 0.0 | 0.00 | 0.13 | 0.13 | 90 | 1015.8 |
| 20260906005053 | 20 | 0 | 0.0 | 0.0 | 0.00 | 0.13 | 0.13 | 90 | 1015.5 |
| 20260906004610 | 21 | 0 | 0.0 | 0.0 | 0.00 | 0.13 | 0.13 | 89 | 1015.4 |
| 20260906004053 | 21 | 0 | 0.0 | 0.0 | 0.00 | 0.13 | 0.13 | 89 | 1015.4 |
| 20260906003553 | 21 | 0 | 0.0 | 0.0 | 0.00 | 0.13 | 0.13 | 89 | 1015.5 |
| 20260906003120 | 21 | 0 | 0.0 | 0.0 | 0.00 | 0.13 | 0.13 | 89 | 1015.4 |
| 20260906002553 | 21 | 0 | 0.0 | 0.0 | 0.00 | 0.13 | 0.13 | 88 | 1015.6 |
| 20260906002057 | 21 | 0 | 0.0 | 0.0 | 0.00 | 0.13 | 0.13 | 88 | 1015.5 |
| 20260906001608 | 21 | 0 | 0.0 | 0.0 | 0.00 | 0.13 | 0.13 | 88 | 1015.4 |
| 20260906001056 | 22 | 0 | 0.0 | 0.0 | 0.00 | 0.13 | 0.13 | 87 | 1015.4 |
| 20260906000553 | 22 | 0 | 0.0 | 1.6 | 0.00 | 0.13 | 0.13 | 87 | 1015.6 |
| 20260906000106 | 22 | 0 | 0.0 | 1.6 | 0.00 | 0.13 | 0.13 | 86 | 1015.6 |
| 20260905235555 | 22 | 0 | 0.0 | 6.4 | 0.00 | 0.13 | 0.13 | 86 | 1015.5 |
| 20260905235054 | 22 | 0 | 0.0 | 6.4 | 0.00 | 0.13 | 0.13 | 86 | 1015.6 |
| 20260905234609 | 22 | 0 | 1.6 | 6.4 | 0.00 | 0.13 | 0.13 | 85 | 1015.6 |
| 20260905234053 | 22 | 317 | 1.6 | 8.0 | 0.00 | 0.13 | 0.13 | 85 | 1015.6 |
| 20260905233554 | 22 | 360 | 1.6 | 8.0 | 0.00 | 0.13 | 0.13 | 84 | 1015.6 |
| 20260905233102 | 22 | 344 | 1.6 | 6.4 | 0.00 | 0.13 | 0.13 | 84 | 1015.6 |
| 20260905232553 | 23 | 0 | 0.0 | 8.0 | 0.00 | 0.13 | 0.13 | 84 | 1015.6 |
| 20260905232053 | 23 | 319 | 3.2 | 9.7 | 0.00 | 0.13 | 0.13 | 83 | 1015.5 |
| 20260905231605 | 23 | 350 | 1.6 | 14.5 | 0.00 | 0.13 | 0.13 | 82 | 1015.6 |
| 20260905231053 | 23 | 325 | 3.2 | 14.5 | 0.00 | 0.13 | 0.13 | 82 | 1015.6 |
| 20260905230553 | 23 | 343 | 6.4 | 14.5 | 0.00 | 0.13 | 0.13 | 82 | 1015.5 |
| 20260905230106 | 23 | 336 | 1.6 | 9.7 | 0.00 | 0.13 | 0.13 | 82 | 1015.5 |
| 20260905225553 | 23 | 309 | 4.8 | 14.5 | 0.00 | 0.13 | 0.13 | 82 | 1015.3 |
| 20260905225055 | 23 | 360 | 3.2 | 14.5 | 0.00 | 0.13 | 0.13 | 82 | 1015.4 |
| 20260905224604 | 23 | 322 | 3.2 | 12.9 | 0.00 | 0.13 | 0.13 | 81 | 1015.5 |
| 20260905224053 | 23 | 346 | 4.8 | 14.5 | 0.00 | 0.13 | 0.13 | 80 | 1015.7 |
| 20260905223553 | 24 | 338 | 4.8 | 14.5 | 0.00 | 0.13 | 0.13 | 79 | 1015.6 |
| 20260905223102 | 24 | 132 | 3.2 | 14.5 | 0.00 | 0.13 | 0.13 | 80 | 1015.5 |
| 20260905222554 | 23 | 341 | 3.2 | 16.1 | 0.00 | 0.13 | 0.13 | 83 | 1015.4 |
| 20260905222053 | 24 | 319 | 3.2 | 16.1 | 0.00 | 0.13 | 0.13 | 79 | 1015.4 |
| 20260905221603 | 25 | 5 | 6.4 | 16.1 | 0.00 | 0.13 | 0.13 | 77 | 1015.4 |
| 20260905221054 | 25 | 323 | 1.6 | 9.7 | 0.00 | 0.13 | 0.13 | 80 | 1015.3 |
| 20260905220554 | 25 | 289 | 3.2 | 11.3 | 0.00 | 0.13 | 0.13 | 78 | 1015.3 |
| 20260905220109 | 26 | 32 | 3.2 | 11.3 | 0.00 | 0.13 | 0.13 | 76 | 1015.2 |
| 20260905215553 | 26 | 0 | 0.0 | 8.0 | 0.00 | 0.13 | 0.13 | 74 | 1015.0 |
| 20260905215053 | 25 | 0 | 3.2 | 8.0 | 0.00 | 0.13 | 0.13 | 74 | 1015.0 |
| 20260905214603 | 26 | 346 | 3.2 | 8.0 | 0.00 | 0.13 | 0.13 | 72 | 1014.9 |
| 20260905214053 | 26 | 20 | 1.6 | 9.7 | 0.00 | 0.13 | 0.13 | 72 | 1014.8 |
| 20260905213557 | 26 | 99 | 1.6 | 9.7 | 0.00 | 0.13 | 0.13 | 71 | 1014.8 |
| 20260905213106 | 26 | 101 | 3.2 | 6.4 | 0.00 | 0.13 | 0.13 | 74 | 1014.7 |
| 20260905212553 | 26 | 111 | 1.6 | 6.4 | 0.00 | 0.13 | 0.13 | 74 | 1014.8 |
| 20260905212053 | 25 | 342 | 1.6 | 8.0 | 0.00 | 0.13 | 0.13 | 75 | 1014.9 |
| 20260905211607 | 25 | 110 | 3.2 | 8.0 | 0.00 | 0.13 | 0.13 | 76 | 1015.1 |
| 20260905211053 | 25 | 202 | 1.6 | 6.4 | 0.00 | 0.13 | 0.13 | 76 | 1015.1 |
| 20260905210554 | 25 | 0 | 0.0 | 6.4 | 0.00 | 0.13 | 0.13 | 77 | 1015.2 |
| 20260905205554 | 26 | 78 | 3.2 | 9.7 | 0.00 | 0.13 | 0.13 | 76 | 1015.2 |
| 20260905205055 | 26 | 41 | 1.6 | 11.3 | 0.00 | 0.13 | 0.13 | 75 | 1015.0 |
| 20260905204603 | 25 | 5 | 1.6 | 12.9 | 0.00 | 0.13 | 0.13 | 78 | 1015.0 |
| 20260905204053 | 25 | 128 | 3.2 | 12.9 | 0.00 | 0.13 | 0.13 | 78 | 1015.0 |
| 20260905203554 | 24 | 83 | 1.6 | 12.9 | 0.00 | 0.13 | 0.13 | 78 | 1015.1 |
| 20260905203103 | 25 | 33 | 3.2 | 14.5 | 0.00 | 0.13 | 0.13 | 77 | 1015.2 |
| 20260905202555 | 25 | 51 | 4.8 | 14.5 | 0.00 | 0.13 | 0.13 | 75 | 1015.2 |
| 20260905202054 | 25 | 0 | 3.2 | 11.3 | 0.00 | 0.13 | 0.13 | 77 | 1015.2 |
| 20260905201604 | 25 | 31 | 3.2 | 14.5 | 0.00 | 0.13 | 0.13 | 79 | 1015.1 |
| 20260905201054 | 24 | 32 | 3.2 | 14.5 | 0.00 | 0.13 | 0.13 | 81 | 1015.2 |
| 20260905200554 | 23 | 350 | 3.2 | 12.9 | 0.00 | 0.13 | 0.13 | 81 | 1015.3 |
| 20260905200108 | 23 | 360 | 3.2 | 12.9 | 0.00 | 0.13 | 0.13 | 84 | 1015.3 |
| 20260905195553 | 23 | 322 | 3.2 | 11.3 | 0.00 | 0.13 | 0.13 | 85 | 1015.4 |
| 20260905195054 | 22 | 344 | 1.6 | 6.4 | 0.00 | 0.13 | 0.13 | 85 | 1015.4 |
| 20260905194600 | 22 | 352 | 1.6 | 4.8 | 0.00 | 0.13 | 0.13 | 86 | 1015.4 |
| 20260905194055 | 22 | 34 | 1.6 | 6.4 | 0.00 | 0.13 | 0.13 | 86 | 1015.3 |
| 20260905193553 | 22 | 86 | 1.6 | 6.4 | 0.00 | 0.13 | 0.13 | 87 | 1015.4 |
| 20260905193110 | 22 | 5 | 1.6 | 6.4 | 0.00 | 0.13 | 0.13 | 86 | 1015.4 |
| 20260905192554 | 22 | 352 | 1.6 | 9.7 | 0.00 | 0.13 | 0.13 | 86 | 1015.5 |
| 20260905192053 | 22 | 352 | 1.6 | 9.7 | 0.00 | 0.13 | 0.13 | 87 | 1015.5 |
| 20260905191603 | 22 | 0 | 1.6 | 9.7 | 0.00 | 0.13 | 0.13 | 88 | 1015.5 |
| 20260905191053 | 22 | 119 | 1.6 | 9.7 | 0.00 | 0.13 | 0.13 | 86 | 1015.4 |
| 20260905190553 | 22 | 348 | 3.2 | 11.3 | 0.03 | 0.13 | 0.13 | 88 | 1015.4 |
| 20260905185553 | 22 | 99 | 1.6 | 11.3 | 0.08 | 0.13 | 0.13 | 90 | 1015.4 |
| 20260905185054 | 22 | 0 | 1.6 | 11.3 | 0.10 | 0.13 | 0.13 | 90 | 1015.6 |
| 20260905184609 | 21 | 341 | 1.6 | 6.4 | 0.10 | 0.13 | 0.13 | 91 | 1015.6 |
| 20260905184054 | 21 | 22 | 1.6 | 6.4 | 0.13 | 0.13 | 0.13 | 92 | 1015.8 |
| 20260905183554 | 21 | 9 | 0.0 | 4.8 | 0.13 | 0.13 | 0.13 | 91 | 1015.8 |
| 20260905183105 | 21 | 0 | 0.0 | 4.8 | 0.13 | 0.13 | 0.13 | 92 | 1015.9 |
| 20260905182553 | 21 | 0 | 0.0 | 4.8 | 0.13 | 0.13 | 0.13 | 92 | 1016.0 |
| 20260905182054 | 21 | 0 | 0.0 | 4.8 | 0.13 | 0.13 | 0.13 | 92 | 1016.1 |
| 20260905181608 | 20 | 38 | 0.0 | 6.4 | 0.13 | 0.13 | 0.13 | 92 | 1016.2 |
| 20260905181053 | 20 | 0 | 1.6 | 6.4 | 0.13 | 0.13 | 0.13 | 91 | 1016.0 |
| 20260905180555 | 20 | 5 | 1.6 | 6.4 | 0.10 | 0.10 | 0.10 | 91 | 1016.1 |
| 20260905180108 | 20 | 9 | 1.6 | 11.3 | 0.08 | 0.08 | 0.08 | 91 | 1016.0 |
| 20260905175553 | 20 | 49 | 1.6 | 11.3 | 0.05 | 0.05 | 0.05 | 90 | 1016.1 |
| 20260905175053 | 21 | 93 | 3.2 | 9.7 | 0.03 | 0.03 | 0.03 | 89 | 1016.1 |
| 20260905174604 | 21 | 352 | 1.6 | 9.7 | 0.03 | 0.03 | 0.03 | 89 | 1016.0 |
| 20260905174053 | 21 | 48 | 1.6 | 9.7 | 0.00 | 0.00 | 0.00 | 88 | 1016.0 |
| 20260905173553 | 21 | 335 | 1.6 | 9.7 | 0.00 | 0.00 | 0.00 | 88 | 1015.9 |
| 20260905173103 | 21 | 352 | 3.2 | 8.0 | 0.00 | 0.00 | 0.00 | 88 | 1016.0 |
| 20260905172554 | 20 | 5 | 1.6 | 8.0 | 0.00 | 0.00 | 0.00 | 88 | 1015.9 |
| 20260905172054 | 20 | 31 | 1.6 | 8.0 | 0.00 | 0.00 | 0.00 | 87 | 1015.9 |
| 20260905171608 | 20 | 248 | 3.2 | 9.7 | 0.00 | 0.00 | 0.00 | 87 | 1015.8 |
| 20260905171055 | 20 | 106 | 1.6 | 9.7 | 0.00 | 0.00 | 0.00 | 87 | 1015.7 |
| 20260905170553 | 20 | 53 | 1.6 | 14.5 | 0.00 | 0.00 | 0.00 | 88 | 1015.7 |
| 20260905170117 | 20 | 92 | 1.6 | 14.5 | 0.00 | 0.00 | 0.00 | 88 | 1015.8 |
| 20260905165554 | 20 | 71 | 3.2 | 14.5 | 0.00 | 0.00 | 0.00 | 87 | 1015.8 |
| 20260905165053 | 20 | 105 | 1.6 | 12.9 | 0.00 | 0.00 | 0.00 | 88 | 1015.7 |
| 20260905164606 | 20 | 94 | 1.6 | 12.9 | 0.00 | 0.00 | 0.00 | 89 | 1015.7 |
| 20260905164053 | 20 | 213 | 1.6 | 6.4 | 0.00 | 0.00 | 0.00 | 89 | 1015.8 |
| 20260905163554 | 20 | 130 | 1.6 | 8.0 | 0.00 | 0.00 | 0.00 | 89 | 1015.8 |
| 20260905163102 | 20 | 53 | 1.6 | 8.0 | 0.00 | 0.00 | 0.00 | 89 | 1015.7 |
| 20260905162558 | 20 | 346 | 1.6 | 8.0 | 0.00 | 0.00 | 0.00 | 89 | 1015.7 |
| 20260905162053 | 20 | 12 | 3.2 | 12.9 | 0.00 | 0.00 | 0.00 | 89 | 1015.7 |
| 20260905161611 | 20 | 347 | 3.2 | 12.9 | 0.00 | 0.00 | 0.00 | 88 | 1015.6 |
| 20260905161053 | 20 | 74 | 1.6 | 8.0 | 0.00 | 0.00 | 0.00 | 88 | 1015.7 |
| 20260905160554 | 20 | 95 | 0.0 | 8.0 | 0.00 | 0.00 | 0.00 | 88 | 1015.6 |
| 20260905160107 | 20 | 44 | 1.6 | 11.3 | 0.00 | 0.00 | 0.00 | 88 | 1015.6 |
| 20260905155553 | 20 | 78 | 3.2 | 11.3 | 0.00 | 0.08 | 0.00 | 88 | 1015.6 |
| 20260905155053 | 20 | 83 | 3.2 | 9.7 | 0.00 | 0.08 | 0.00 | 87 | 1015.5 |
| 20260905154605 | 20 | 126 | 3.2 | 14.5 | 0.00 | 0.08 | 0.00 | 86 | 1015.4 |
| 20260905154056 | 20 | 351 | 3.2 | 14.5 | 0.00 | 0.08 | 0.00 | 86 | 1015.4 |
| 20260905153555 | 21 | 84 | 3.2 | 14.5 | 0.00 | 0.08 | 0.00 | 86 | 1015.2 |
| 20260905153100 | 21 | 37 | 4.8 | 14.5 | 0.00 | 0.08 | 0.00 | 86 | 1015.2 |
| 20260905152553 | 21 | 338 | 3.2 | 14.5 | 0.00 | 0.08 | 0.00 | 87 | 1015.3 |
| 20260905152053 | 20 | 82 | 4.8 | 14.5 | 0.00 | 0.08 | 0.00 | 87 | 1015.2 |
| 20260905151609 | 20 | 63 | 3.2 | 16.1 | 0.00 | 0.08 | 0.00 | 88 | 1015.1 |
| 20260905151054 | 20 | 76 | 4.8 | 17.7 | 0.00 | 0.08 | 0.00 | 88 | 1015.1 |
| 20260905150554 | 20 | 67 | 6.4 | 17.7 | 0.00 | 0.08 | 0.00 | 88 | 1015.1 |
| 20260905150118 | 20 | 88 | 8.0 | 17.7 | 0.00 | 0.08 | 0.00 | 88 | 1015.1 |
| 20260905145553 | 20 | 119 | 4.8 | 17.7 | 0.00 | 0.20 | 0.00 | 88 | 1015.1 |
| 20260905145055 | 20 | 90 | 8.0 | 17.7 | 0.00 | 0.20 | 0.00 | 88 | 1015.1 |
| 20260905144602 | 20 | 94 | 4.8 | 11.3 | 0.00 | 0.20 | 0.00 | 87 | 1015.0 |
| 20260905144056 | 20 | 65 | 4.8 | 11.3 | 0.00 | 0.20 | 0.00 | 87 | 1015.1 |
| 20260905143555 | 20 | 309 | 1.6 | 12.9 | 0.00 | 0.20 | 0.00 | 86 | 1015.1 |
| 20260905143108 | 20 | 52 | 0.0 | 14.5 | 0.00 | 0.20 | 0.00 | 85 | 1015.0 |
| 20260905142554 | 20 | 84 | 4.8 | 14.5 | 0.00 | 0.20 | 0.00 | 84 | 1015.0 |
| 20260905142053 | 20 | 96 | 3.2 | 11.3 | 0.00 | 0.20 | 0.00 | 84 | 1015.1 |
| 20260905141609 | 20 | 114 | 1.6 | 12.9 | 0.00 | 0.20 | 0.00 | 84 | 1015.0 |
| 20260905141057 | 20 | 325 | 3.2 | 14.5 | 0.00 | 0.20 | 0.00 | 84 | 1014.9 |
| 20260905140556 | 20 | 113 | 8.0 | 14.5 | 0.00 | 0.20 | 0.00 | 84 | 1014.8 |
| 20260905140107 | 20 | 107 | 8.0 | 14.5 | 0.00 | 0.20 | 0.00 | 84 | 1014.8 |
| 20260905135553 | 20 | 118 | 3.2 | 12.9 | 0.00 | 0.30 | 0.00 | 84 | 1014.9 |
| 20260905135054 | 20 | 234 | 1.6 | 12.9 | 0.00 | 0.30 | 0.00 | 85 | 1014.8 |
| 20260905134609 | 20 | 82 | 1.6 | 9.7 | 0.00 | 0.30 | 0.00 | 85 | 1014.7 |
| 20260905134054 | 20 | 57 | 3.2 | 9.7 | 0.00 | 0.30 | 0.00 | 86 | 1014.9 |
| 20260905133554 | 20 | 58 | 3.2 | 16.1 | 0.00 | 0.30 | 0.00 | 85 | 1014.9 |
| 20260905133059 | 21 | 91 | 3.2 | 16.1 | 0.00 | 0.30 | 0.00 | 84 | 1014.9 |
| 20260905132553 | 21 | 79 | 4.8 | 14.5 | 0.00 | 0.30 | 0.00 | 85 | 1014.9 |
| 20260905132053 | 21 | 87 | 1.6 | 11.3 | 0.00 | 0.30 | 0.00 | 85 | 1014.9 |
| 20260905131608 | 21 | 118 | 1.6 | 12.9 | 0.00 | 0.30 | 0.00 | 85 | 1015.0 |
| 20260905131053 | 21 | 19 | 3.2 | 14.5 | 0.00 | 0.30 | 0.00 | 87 | 1014.7 |